COSMOS 2407

导读

COSMOS 2407是独联体(CIS)继承自俄罗斯航天体系发射的一颗军事卫星,属于俄罗斯/苏联"宇宙"(COSMOS)系列卫星,该系列自1962年起广泛承载军事侦察、技术试验等保密任务。2004年7月22日发射入轨,延续了宇宙系列保密任务属性,大概率承担军事侦察或空间技术验证任务,服役期间为独联体空间军事应用提供了数据支撑。

基本信息
目录编号:
28380
目录名称:
COSMOS 2407
国际标识:
2004-028A
轨道中心:
EARTH
卫星名称:
COSMOS 2407
卫星全名:
--
卫星状态:
在轨 (已飞行8087 天)
发射日期:
2004-07-22 UTC
国别 :
俄罗斯(独联体) (CIS)
星等 :
--
该卫星已列入 空间交会检测服务 Space Conjunction Data Service (SCDS) ,当前飞行风险评估等级: 无高风险
轨道信息
数据来源 国际轨道数据 AOE轨道数据
星历时间 2026-09-12T15:07:04+0800
8小时前
查看轨道信息
2026-09-06T06:00:00+0800
6天前
查看轨道信息
半长轴 7355.035km 7355.029km
偏心率 0.0039366 0.0039868
轨道倾角 82.964° 82.963°
近地点辐角 10.784° 28.379°
升交点赤经 10.307° 15.029°
平近点角 17.738° 86.688°
近地点 947.944km 947.568km
远地点 1005.852km 1006.216km
周期 104.625分钟 104.625分钟
每日圈数 13.7634 13.763415
详细信息
使用方式:
暂无
2D轨道图
3D轨道图
轨道高度分析图
轨道倾角分析图
轨道综合分析图
查看轨道综合分析图
交会数据列表
事件ID 空间交会对象 最接近时刻(TCA) 交会距离 交会风险概率(CRP) 交会风险指数(CRI) 操作
CDM_260914-194602-838003-791122
2026-09-14T
19:46:56+0000
1.528 km
极远距离
2.480437E-6 低风险 0.43
与全量物体交会距离演化趋势
与全量物体交会风险概率演化趋势